Location: Newark
(41.9000°N, 12.4833°E)
Time: 11:16:35
(UTC+00:00)

EO-88 - Pass Details

Date: 30 May 2019
Orbit: 485 x 494 km, 97.4° (Epoch: 15 June)

Event Time Altitude Azimuth Distance (km) Brightness Sun altitude
Exits shadow 21:05:29 37° 224° (SW) 783 ? -20.3°
Maximum altitude 21:06:18 44° 261° (W) 694 ? -20.4°
Drops below altitude 10° 21:09:49 10° 335° (NNW) 1,698 ? -20.7°
Sets 21:11:58 0° 342° (NNW) 2,585 ? -20.9°
